Regional Weather Roundup
Issued by NWS Midland/Odessa, TX

Home | Current Version | Previous Version | Text Only | Print | Product List | Glossary On
Versions: 1 2 3 4 5 6 7 8 9 10 11 12 13 14 15 16 17 18 19 20 21 22 23 24 25 26 27 28 29 30 31 32 33 34 35 36 37 38 39 40 41 42 43 44 45 46 47 48 49 50
000
ASUS44 KMAF 211910
RWRMAF
MIDLAND AREA WEATHER ROUNDUP
NATIONAL WEATHER SERVICE MIDLAND TX
200 PM CDT TUE OCT 21 2014

...IN SOUTHWEST TEXAS AND SOUTHEAST NEW MEXICO...

CITY           SKY/WX    TMP DP  RH WIND       PRES   REMARKS
ALPINE         CLOUDY    62  57  83 CALM      30.17F
ANDREWS        CLOUDY    70  55  57 S9G16     30.10F
ARTESIA        NOT AVBL
BIG SPRING     CLOUDY    74  56  54 CALM      30.10F
CARLSBAD       PTSUNNY   69  59  70 S8        30.07F
DRYDEN           N/A     68  65  90 E10       30.05F
FORT STOCKTON  CLOUDY    66  60  81 SE14      30.07F
GUAD PASS      PTSUNNY   63  52  67 NE13      30.16F
HOBBS          LGT RAIN  63  61  94 S13       30.12F
MARFA          CLOUDY    57  55  94 N6        30.15F
MIDLAND AIRPK  CLOUDY    74  54  50 SE10      30.09F
MIDLAND INTL   NOT AVBL
ODESSA         CLOUDY    71  56  58 S14       30.10F
PECOS          CLOUDY    70  60  70 E13G18    30.05F
PRESIDIO       DRIZZLE   65  62  91 NW7       30.04F
SEMINOLE       CLOUDY    69  55  60 S8        30.11F
SNYDER         MOSUNNY   74  55  51 SE7       30.09F
WINK           CLOUDY    68  60  75 SE15      30.07F
$$
...OTHER STATIONS IN TEXAS...

CITY           SKY/WX    TMP DP  RH WIND       PRES   REMARKS
ABILENE        SUNNY     78  52  40 VRB7G17   30.07F
AMARILLO       MOSUNNY   73  51  46 SE14      30.10F
AUSTIN         MOSUNNY   79  57  46 NE7       30.03F
BROWNSVILLE    CLOUDY    84  71  65 E9G18     29.92S
CORPUS CHRISTI MOSUNNY   82  69  64 E13       29.97F
DALLAS FTW     MOSUNNY   80  53  39 SE8       30.05F
DEL RIO        CLOUDY    78  62  57 SE9       30.00F
EL PASO        MOSUNNY   69  54  58 VRB3      30.06F
HOUSTON INT    SUNNY     80  54  40 NE6       30.02F
LUBBOCK        PTSUNNY   73  52  47 SE10      30.10F
SAN ANGELO     CLOUDY    79  55  43 NE8       30.05F
SAN ANTONIO    MOSUNNY   81  54  39 E8        30.02F
WACO           SUNNY     80  55  42 E7        30.05F
WICHITA FALLS  NOT AVBL
$$
...OTHER LOCATIONS IN NEW MEXICO...

CITY           SKY/WX    TMP DP  RH WIND       PRES   REMARKS
ALAMAGORDO     NOT AVBL
ALBUQUERQUE    PTSUNNY   65  46  50 CALM      30.15F
CANNON AFB     SUNNY     71  48  43 S8        30.11F
CLOVIS         NOT AVBL
HOLLOMAN AFB   MOSUNNY   67  55  64 SW5       30.09F
ROSWELL        CLOUDY    65  58  78 W5        30.10F
RUIDOSO        PTSUNNY   55  48  76 SE5       30.23F
SANTA FE       CLOUDY    60  43  53 S9        30.17F
TRUTH OR CONSE MOSUNNY   66  51  58 CALM      30.12F
TUCUMCARI      CLOUDY    72  49  44 SW13      30.09F
$$



USA.gov is the U.S. government's official web portal to all federal, state and local government web resources and services.